Flag for Bosnia-Herzegovina Weather past 2 weeks in Tuzla, Bosnia-Herzegovina

Now
75 °F

Passing clouds.


Feels Like: 77 °F
Forecast: 64 / 94 °F
Wind: 5 mph from East

Location: Tuzla

Current Time: Jul 28, 2015 at 10:46:06 AM

Latest Report: Jul 28, 2015 at 10:00 AM


Visibility: N/A

Pressure: 29.89 "Hg

Humidity: 74%

Dew point: 66 °F

Location of TuzlaLocation

Historic Weather in Tuzla — Graph

°F

Tuzla temperature yesterday

Maximum temperature yesterday: 88 °F (at 1:00 PM)
Minimum temperature yesterday: 54 °F (at 6:00 AM)
Average temperature yesterday: 75 °F

Past Weeks' High & Low Weather Summary

 TemperatureHumidityPressure
High99 °F (Jul 17, 2:00 PM)100% (Jul 13, 10:00 PM)30.12 "Hg (Jul 13, 10:00 PM)
Low54 °F (Jul 27, 6:00 AM)28% (Jul 22, 2:00 PM)29.68 "Hg (Jul 27, 3:00 PM)
Average81 °F60%29.95 "Hg
* Reported Jul 13 9:00 AM — Jul 28 9:30 AM, Tuzla, Weather by CustomWeather, © 2015

Note: Actual official high and low records may vary slightly from our data, if they occured in-between our weather recording intervals... More about our weather records

Advertising

Tuzla weather history for previous 24 hours

 ConditionsComfort  
Time TempWeatherWind HumidityBarometerVisibility
9:30 AM
Tue, Jul 28
73 °FPassing clouds.3 mph83%29.89 "HgN/A
9:00 AM70 °FPassing clouds.2 mph88%29.89 "HgN/A
8:00 AM68 °FSunny.2 mph78%29.89 "Hg10 mi
7:00 AM63 °FSunny.2 mph100%29.89 "Hg10 mi
6:30 AM64 °FClear.2 mph100%29.86 "Hg5 mi
6:00 AM63 °FClear.5 mph100%29.86 "Hg4 mi
5:30 AM63 °FClear.2 mph100%29.86 "Hg4 mi
5:00 AM63 °FClear.3 mph100%29.86 "Hg4 mi
9:30 PM
Mon, Jul 27
72 °FPassing clouds.3 mph83%29.83 "HgN/A
9:00 PM72 °FPartly sunny.5 mph83%29.80 "HgN/A
8:30 PM73 °FPartly sunny.9 mph83%29.77 "HgN/A
8:00 PM75 °FPartly sunny.10 mph78%29.74 "HgN/A
7:00 PM79 °FScattered clouds.6 mph74%29.74 "HgN/A
6:30 PM81 °FScattered clouds.5 mph70%29.71 "HgN/A
6:00 PM81 °FScattered clouds.6 mph70%29.71 "HgN/A
5:30 PM81 °FPartly sunny.2 mph70%29.71 "HgN/A
5:00 PM77 °FLight rain. Partly sunny.3 mph79%29.71 "HgN/A
4:30 PM79 °FPartly sunny.5 mph65%29.71 "HgN/A
4:00 PM79 °FPartly sunny.6 mph65%29.71 "HgN/A
3:30 PM79 °FPartly sunny.8 mph65%29.71 "HgN/A
3:00 PM86 °FPartly sunny.6 mph55%29.68 "HgN/A
2:30 PM88 °FPartly sunny.2 mph52%29.71 "HgN/A
2:00 PM86 °FPartly sunny.6 mph55%29.71 "HgN/A
1:30 PM88 °FPartly sunny.6 mph49%29.71 "HgN/A
1:00 PM88 °FPassing clouds.6 mph49%29.71 "HgN/A
12:30 PM84 °FPassing clouds.7 mph51%29.74 "HgN/A
12:00 PM82 °FPassing clouds.6 mph55%29.74 "HgN/A
11:30 AM77 °FPassing clouds.7 mph61%29.74 "HgN/A
11:00 AM75 °FPassing clouds.6 mph65%29.77 "HgN/A
10:30 AM73 °FPassing clouds.5 mph69%29.77 "HgN/A
10:00 AM70 °FPassing clouds.3 mph78%29.77 "HgN/A
Weather by CustomWeather, © 2015

See weather overviewHow to use our weather pages